When you browse on this site, cookies collect data to enhance your experience and personalize the content and advertising you see.
Visit our Privacy Policy to learn more. By continuing to use the site, you agree to this use of cookies and data.
  • In Latvia
  • List of Countries
  • For 7 days
  • Water Temperature
  • Weather Map
  • Weather Widgets
  • user-avatar
    Login

    Hourly Weather Bolgatanga

    Today, 27 May, Wednesday

    Time Temperature Precipitation Wind Pressure Humidity
    00:00 +34°C° 0 mm 2 mps 742 mmHg 42%
    01:00 +34°C° 0.5 mm 2 mps 742 mmHg 47%
    02:00 +33°C° 0.5 mm 3 mps 741 mmHg 52%
    03:00 +31°C° 0.5 mm 3 mps 741 mmHg 58%
    04:00 +30°C° 1 mm 3 mps 742 mmHg 61%
    05:00 +30°C° 1 mm 3 mps 742 mmHg 65%
    06:00 +29°C° 1 mm 2 mps 743 mmHg 69%
    07:00 +29°C° 0.1 mm 2 mps 743 mmHg 69%
    08:00 +29°C° 0.1 mm 2 mps 744 mmHg 68%
    09:00 +30°C° 0.1 mm 2 mps 744 mmHg 68%
    10:00 +30°C° 0.2 mm 2 mps 744 mmHg 64%
    11:00 +31°C° 0.2 mm 2 mps 743 mmHg 61%
    12:00 +32°C° 0.2 mm 2 mps 743 mmHg 57%
    13:00 +34°C° 0 mm 2 mps 742 mmHg 52%
    14:00 +35°C° 0 mm 2 mps 741 mmHg 47%
    15:00 +36°C° 0 mm 2 mps 740 mmHg 43%
    16:00 +36°C° 0 mm 2 mps 740 mmHg 43%
    17:00 +35°C° 0 mm 1 mps 740 mmHg 43%
    18:00 +35°C° 0 mm 1 mps 740 mmHg 44%
    19:00 +34°C° 0.1 mm 1 mps 741 mmHg 46%
    20:00 +33°C° 0.1 mm 1 mps 742 mmHg 49%
    21:00 +32°C° 0.1 mm 1 mps 742 mmHg 51%
    22:00 +32°C° 1 mm 1 mps 743 mmHg 55%
    23:00 +31°C° 1 mm 1 mps 743 mmHg 58%

    Tomorrow, 28 May, Thursday

    Time Temperature Precipitation Wind Pressure Humidity
    00:00 +30°C° 1 mm 1 mps 743 mmHg 62%
    01:00 +30°C° 0.6 mm 1 mps 742 mmHg 64%
    02:00 +30°C° 0.6 mm 2 mps 742 mmHg 66%
    03:00 +29°C° 0.6 mm 2 mps 742 mmHg 68%
    04:00 +29°C° 0.1 mm 2 mps 742 mmHg 68%
    05:00 +29°C° 0.1 mm 2 mps 742 mmHg 69%
    06:00 +29°C° 0.1 mm 3 mps 742 mmHg 70%
    07:00 +30°C° 0 mm 2 mps 742 mmHg 66%
    08:00 +31°C° 0 mm 1 mps 743 mmHg 62%
    09:00 +30°C° 0 mm 0 mps 743 mmHg 59%
    10:00 +33°C° 0 mm 1 mps 742 mmHg 52%
    11:00 +35°C° 0 mm 1 mps 742 mmHg 46%
    12:00 +38°C° 0 mm 2 mps 741 mmHg 40%
    13:00 +38°C° 0 mm 2 mps 741 mmHg 37%
    14:00 +39°C° 0 mm 2 mps 740 mmHg 35%
    15:00 +39°C° 0 mm 2 mps 740 mmHg 33%
    16:00 +39°C° 0 mm 2 mps 740 mmHg 34%
    17:00 +38°C° 0 mm 2 mps 740 mmHg 36%
    18:00 +37°C° 0 mm 2 mps 740 mmHg 37%
    19:00 +36°C° 0 mm 2 mps 740 mmHg 40%
    20:00 +36°C° 0 mm 2 mps 741 mmHg 42%
    21:00 +34°C° 0 mm 1 mps 741 mmHg 45%
    22:00 +33°C° 0 mm 1 mps 741 mmHg 47%
    23:00 +33°C° 0 mm 1 mps 741 mmHg 48%

    Day after tomorrow, 29 May, Friday

    Time Temperature Precipitation Wind Pressure Humidity
    00:00 +33°C° 0 mm 1 mps 741 mmHg 50%
    01:00 +32°C° 0 mm 1 mps 740 mmHg 52%
    02:00 +32°C° 0 mm 1 mps 740 mmHg 54%
    03:00 +31°C° 0 mm 1 mps 740 mmHg 57%
    04:00 +31°C° 0 mm 1 mps 741 mmHg 58%
    05:00 +31°C° 0 mm 1 mps 741 mmHg 59%
    06:00 +31°C° 0 mm 1 mps 741 mmHg 60%
    07:00 +32°C° 0 mm 2 mps 742 mmHg 56%
    08:00 +34°C° 0 mm 2 mps 742 mmHg 53%
    09:00 +35°C° 0 mm 3 mps 742 mmHg 49%
    10:00 +37°C° 0 mm 2 mps 742 mmHg 43%
    11:00 +39°C° 0 mm 1 mps 741 mmHg 37%
    12:00 +38°C° 0 mm 0 mps 740 mmHg 31%
    13:00 +38°C° 0 mm 0 mps 740 mmHg 29%
    14:00 +39°C° 0 mm 0 mps 739 mmHg 26%
    15:00 +40°C° 0 mm 0 mps 738 mmHg 24%
    16:00 +42°C° 0 mm 1 mps 738 mmHg 25%
    17:00 +41°C° 0 mm 1 mps 738 mmHg 25%
    18:00 +41°C° 0 mm 1 mps 737 mmHg 26%
    19:00 +40°C° 0 mm 2 mps 738 mmHg 29%
    20:00 +38°C° 0 mm 2 mps 738 mmHg 32%
    21:00 +37°C° 0 mm 2 mps 739 mmHg 35%
    22:00 +36°C° 0 mm 3 mps 739 mmHg 41%
    23:00 +35°C° 0 mm 4 mps 740 mmHg 46%

    30 May, Saturday

    Time Temperature Precipitation Wind Pressure Humidity
    00:00 +34°C° 0 mm 5 mps 740 mmHg 51%
    01:00 +33°C° 0 mm 5 mps 740 mmHg 55%
    02:00 +33°C° 0 mm 5 mps 740 mmHg 58%
    03:00 +32°C° 0 mm 5 mps 740 mmHg 62%
    04:00 +30°C° 0 mm 5 mps 741 mmHg 64%
    05:00 +30°C° 0 mm 5 mps 741 mmHg 66%
    06:00 +30°C° 0 mm 4 mps 741 mmHg 69%
    07:00 +32°C° 0 mm 4 mps 742 mmHg 65%
    08:00 +33°C° 0 mm 4 mps 742 mmHg 62%
    09:00 +34°C° 0 mm 4 mps 742 mmHg 58%
    10:00 +35°C° 0 mm 4 mps 742 mmHg 51%
    11:00 +37°C° 0 mm 4 mps 741 mmHg 43%
    12:00 +39°C° 0 mm 3 mps 741 mmHg 36%
    13:00 +40°C° 0 mm 3 mps 740 mmHg 33%
    14:00 +41°C° 0 mm 2 mps 739 mmHg 30%
    15:00 +42°C° 0 mm 2 mps 739 mmHg 27%
    16:00 +41°C° 0 mm 2 mps 739 mmHg 29%
    17:00 +40°C° 0 mm 2 mps 739 mmHg 30%
    18:00 +39°C° 0 mm 2 mps 739 mmHg 32%
    19:00 +38°C° 0 mm 3 mps 740 mmHg 38%
    20:00 +36°C° 0 mm 4 mps 740 mmHg 43%
    21:00 +35°C° 0 mm 4 mps 741 mmHg 49%
    22:00 +34°C° 0 mm 4 mps 741 mmHg 52%
    23:00 +33°C° 0 mm 4 mps 741 mmHg 54%

    31 May, Sunday

    Time Temperature Precipitation Wind Pressure Humidity
    00:00 +33°C° 0 mm 4 mps 741 mmHg 56%
    01:00 +32°C° 0 mm 4 mps 741 mmHg 57%
    02:00 +32°C° 0 mm 4 mps 741 mmHg 59%
    03:00 +31°C° 0 mm 3 mps 741 mmHg 60%
    04:00 +31°C° 0 mm 3 mps 741 mmHg 62%
    05:00 +30°C° 0 mm 3 mps 741 mmHg 64%
    06:00 +30°C° 0 mm 3 mps 741 mmHg 67%
    07:00 +31°C° 0 mm 3 mps 742 mmHg 64%
    08:00 +33°C° 0 mm 3 mps 742 mmHg 61%
    09:00 +34°C° 0 mm 3 mps 743 mmHg 58%
    10:00 +36°C° 0 mm 3 mps 743 mmHg 52%
    11:00 +37°C° 0 mm 3 mps 742 mmHg 46%
    12:00 +39°C° 0 mm 3 mps 742 mmHg 40%
    13:00 +40°C° 0 mm 2 mps 741 mmHg 37%
    14:00 +40°C° 0 mm 2 mps 740 mmHg 35%
    15:00 +41°C° 0 mm 1 mps 740 mmHg 33%
    16:00 +40°C° 0 mm 1 mps 740 mmHg 33%
    17:00 +40°C° 0 mm 1 mps 739 mmHg 34%
    18:00 +40°C° 0 mm 1 mps 739 mmHg 35%
    19:00 +39°C° 0 mm 2 mps 740 mmHg 37%
    20:00 +38°C° 0 mm 2 mps 740 mmHg 39%
    21:00 +37°C° 0 mm 3 mps 740 mmHg 42%
    22:00 +36°C° 0.1 mm 3 mps 741 mmHg 44%
    23:00 +36°C° 0.1 mm 3 mps 741 mmHg 46%

    1 June, Monday

    Time Temperature Precipitation Wind Pressure Humidity
    00:00 +35°C° 0.1 mm 3 mps 741 mmHg 48%
    01:00 +34°C° 0.3 mm 3 mps 741 mmHg 51%
    02:00 +33°C° 0.3 mm 3 mps 741 mmHg 55%
    03:00 +33°C° 0.3 mm 3 mps 741 mmHg 58%
    04:00 +32°C° 0.1 mm 4 mps 741 mmHg 61%
    05:00 +32°C° 0.1 mm 4 mps 741 mmHg 64%
    06:00 +30°C° 0.1 mm 4 mps 742 mmHg 67%
    07:00 +32°C° 0 mm 4 mps 742 mmHg 63%
    08:00 +33°C° 0 mm 4 mps 742 mmHg 59%
    09:00 +35°C° 0 mm 4 mps 742 mmHg 55%
    10:00 +36°C° 0 mm 4 mps 742 mmHg 50%
    11:00 +38°C° 0 mm 3 mps 742 mmHg 45%
    12:00 +39°C° 0 mm 3 mps 742 mmHg 40%
    13:00 +40°C° 0 mm 3 mps 741 mmHg 38%
    14:00 +40°C° 0 mm 2 mps 740 mmHg 36%
    15:00 +41°C° 0 mm 2 mps 740 mmHg 34%
    16:00 +40°C° 0 mm 2 mps 740 mmHg 36%
    17:00 +39°C° 0 mm 3 mps 739 mmHg 38%
    18:00 +39°C° 0 mm 3 mps 739 mmHg 40%
    19:00 +38°C° 0 mm 4 mps 740 mmHg 43%
    20:00 +37°C° 0 mm 4 mps 740 mmHg 47%
    21:00 +36°C° 0 mm 4 mps 741 mmHg 50%
    22:00 +35°C° 0.3 mm 4 mps 741 mmHg 54%
    23:00 +34°C° 0.3 mm 4 mps 741 mmHg 57%
    Show more